FW3671 Weather Reports


Display with metric or nautical units.
time (UTC)temp
F
wind
direction
speed
MPH
gust
MPH
rain 1hr
in
rain 24hr
in
rain mn
in
humidity
%
barometer
mb
20260508105527 55 128 9.0 12.0 0.00 0.00 0.00 44 1016.4
20260508105025 54 138 11.0 14.0 0.00 0.00 0.00 44 1016.2
20260508104523 54 140 7.0 8.0 0.00 0.00 0.00 45 1016.3
20260508104019 55 133 7.0 7.0 0.00 0.00 0.00 45 1016.3
20260508103516 55 135 6.0 7.0 0.00 0.00 0.00 43 1016.6
20260508103013 56 143 5.0 10.0 0.00 0.00 0.00 43 1016.4
20260508102511 55 131 8.0 10.0 0.00 0.00 0.00 43 1016.3
20260508102008 56 138 8.0 9.0 0.00 0.00 0.00 43 1016.3
20260508101506 56 138 8.0 12.0 0.00 0.00 0.00 42 1016.3
20260508101002 56 138 9.0 11.0 0.00 0.00 0.00 42 1016.3
20260508100501 56 141 6.0 11.0 0.00 0.00 0.00 42 1016.3
20260508095957 56 141 9.0 11.0 0.00 0.00 0.00 41 1016.2
20260508095455 56 129 12.0 14.0 0.00 0.00 0.00 41 1016.3
20260508094951 56 132 14.0 14.0 0.00 0.00 0.00 41 1016.1
20260508094448 56 142 9.0 14.0 0.00 0.00 0.00 42 1016.2
20260508093945 56 142 6.0 11.0 0.00 0.00 0.00 41 1016.3
20260508093442 56 124 8.0 12.0 0.00 0.00 0.00 41 1015.9
20260508092940 56 126 9.0 13.0 0.00 0.00 0.00 41 1016.1
20260508092437 56 146 6.0 7.0 0.00 0.00 0.00 42 1016.2
20260508091936 56 121 6.0 11.0 0.00 0.00 0.00 42 1016.1
20260508091432 55 128 6.0 10.0 0.00 0.00 0.00 43 1016.1
20260508090929 56 132 7.0 8.0 0.00 0.00 0.00 43 1016.2
20260508090428 56 141 7.0 9.0 0.00 0.00 0.00 42 1016.0
20260508085923 56 145 8.0 10.0 0.00 0.00 0.00 42 1016.0
20260508085420 56 145 9.0 10.0 0.00 0.00 0.00 41 1016.2
20260508084917 57 149 6.0 11.0 0.00 0.00 0.00 40 1016.1
20260508084414 57 134 8.0 10.0 0.00 0.00 0.00 41 1016.1
20260508083912 57 139 6.0 8.0 0.00 0.00 0.00 40 1016.2
20260508083409 57 138 9.0 10.0 0.00 0.00 0.00 40 1016.2
20260508082908 57 135 11.0 11.0 0.00 0.00 0.00 40 1016.1
20260508082406 57 142 8.0 11.0 0.00 0.00 0.00 41 1016.1
20260508081904 57 135 9.0 11.0 0.00 0.00 0.00 41 1016.2
20260508081400 57 151 5.0 8.0 0.00 0.00 0.00 41 1016.1
20260508080857 57 143 8.0 9.0 0.00 0.00 0.00 41 1015.9
20260508080355 57 145 5.0 9.0 0.00 0.00 0.00 41 1016.1
20260508075851 57 147 5.0 9.0 0.00 0.00 0.00 40 1015.9
20260508075348 58 135 4.0 6.0 0.00 0.00 0.00 41 1016.1
20260508074846 59 189 0.0 4.0 0.00 0.00 0.00 36 1016.1
20260508074343 60 116 6.0 7.0 0.00 0.00 0.00 36 1015.9
20260508073840 60 133 10.0 10.0 0.00 0.00 0.00 36 1015.9
20260508073338 60 138 9.0 13.0 0.00 0.00 0.00 36 1016.1
20260508072834 60 141 8.0 12.0 0.00 0.00 0.00 35 1015.9
20260508072331 60 136 8.0 15.0 0.00 0.00 0.00 35 1015.6
20260508071828 60 136 10.0 13.0 0.00 0.00 0.00 35 1016.2
20260508071326 60 135 13.0 16.0 0.00 0.00 0.00 36 1016.0
20260508070823 60 137 9.0 14.0 0.00 0.00 0.00 36 1016.2
20260508070322 59 117 9.0 12.0 0.00 0.00 0.00 36 1016.0
20260508065819 59 133 9.0 11.0 0.00 0.00 0.00 38 1015.9
20260508065317 58 144 8.0 10.0 0.00 0.00 0.00 39 1016.1
20260508064815 58 147 8.0 8.0 0.00 0.00 0.00 40 1016.2
20260508064312 58 156 7.0 9.0 0.00 0.00 0.00 40 1016.2
20260508063809 58 165 5.0 7.0 0.00 0.00 0.00 39 1016.1
20260508063307 59 146 6.0 6.0 0.00 0.00 0.00 39 1016.0
20260508062804 59 217 0.0 2.0 0.00 0.00 0.00 37 1016.1
20260508062305 59 146 6.0 7.0 0.00 0.00 0.00 37 1016.2
20260508061758 60 142 8.0 9.0 0.00 0.00 0.00 37 1015.7
20260508061255 60 131 7.0 9.0 0.00 0.00 0.00 36 1015.7
20260508060752 60 130 6.0 9.0 0.00 0.00 0.00 35 1015.9
20260508060250 60 142 6.0 10.0 0.00 0.00 0.00 35 1015.7
20260508055745 60 146 7.0 10.0 0.00 0.00 0.00 36 1015.7
20260508055243 60 134 8.0 10.0 0.00 0.00 0.00 35 1015.6
20260508054739 60 135 8.0 11.0 0.00 0.00 0.00 36 1015.5
20260508054237 60 126 9.0 9.0 0.00 0.00 0.00 36 1015.6
20260508053734 60 145 6.0 9.0 0.00 0.00 0.00 36 1015.5
20260508053231 61 147 6.0 9.0 0.00 0.00 0.00 35 1015.6
20260508052728 61 154 6.0 9.0 0.00 0.00 0.00 36 1015.5
20260508052225 62 144 8.0 10.0 0.00 0.00 0.00 34 1015.4
20260508051721 62 135 9.0 10.0 0.00 0.00 0.00 34 1015.5
20260508051217 62 134 10.0 14.0 0.00 0.00 0.00 33 1015.6
20260508050713 62 138 9.0 11.0 0.00 0.00 0.00 34 1015.6
20260508050211 62 139 8.0 11.0 0.00 0.00 0.00 34 1015.6
20260508045706 62 144 8.0 12.0 0.00 0.00 0.00 34 1015.5
20260508045204 62 148 7.0 11.0 0.00 0.00 0.00 33 1015.5
20260508044701 62 131 11.0 11.0 0.00 0.00 0.00 34 1015.6
20260508044158 62 139 11.0 11.0 0.00 0.00 0.00 34 1015.7
20260508043653 62 139 8.0 11.0 0.00 0.00 0.00 34 1015.5
20260508043152 62 134 8.0 11.0 0.00 0.00 0.00 34 1015.5
20260508042648 62 137 9.0 11.0 0.00 0.00 0.00 34 1015.6
20260508042146 62 129 7.0 11.0 0.00 0.00 0.00 34 1015.7
20260508041642 62 142 8.0 11.0 0.00 0.00 0.00 34 1015.4
20260508041139 63 133 7.0 8.0 0.00 0.00 0.00 33 1015.6
20260508040635 63 135 8.0 10.0 0.00 0.00 0.00 33 1015.5
20260508040133 63 132 8.0 9.0 0.00 0.00 0.00 32 1015.5
20260508035630 63 136 8.0 9.0 0.00 0.00 0.00 33 1015.4
20260508035127 64 103 2.0 3.0 0.00 0.00 0.00 33 1015.3
20260508034624 64 162 4.0 7.0 0.00 0.00 0.00 32 1015.3
20260508034121 64 143 6.0 7.0 0.00 0.00 0.00 32 1015.3
20260508033618 64 147 7.0 10.0 0.00 0.00 0.00 32 1015.4
20260508033117 64 152 6.0 8.0 0.00 0.00 0.00 32 1015.2
20260508032612 64 133 8.0 9.0 0.00 0.00 0.00 32 1015.3
20260508032110 64 151 9.0 11.0 0.00 0.00 0.00 31 1015.2
20260508031607 64 148 8.0 10.0 0.00 0.00 0.00 31 1015.3
20260508031103 64 128 11.0 12.0 0.00 0.00 0.00 33 1015.2
20260508030559 64 148 5.0 6.0 0.00 0.00 0.00 34 1014.9
20260508030058 64 186 3.0 4.0 0.00 0.00 0.00 34 1014.7
20260508025553 66 175 3.0 5.0 0.00 0.00 0.00 32 1014.9
20260508025051 66 157 3.0 6.0 0.00 0.00 0.00 32 1015.1
20260508024547 67 155 6.0 7.0 0.00 0.00 0.00 30 1015.1
20260508024044 67 148 5.0 6.0 0.00 0.00 0.00 30 1014.8
20260508023540 67 141 5.0 6.0 0.00 0.00 0.00 31 1014.9
20260508023038 68 29 2.0 3.0 0.00 0.00 0.00 29 1014.8
20260508022533 70 275 2.0 3.0 0.00 0.00 0.00 29 1014.6
20260508022031 72 263 3.0 3.0 0.00 0.00 0.00 27 1015.1
20260508021526 73 271 2.0 2.0 0.00 0.00 0.00 25 1014.7
20260508021022 75 0 0.0 3.0 0.00 0.00 0.00 24 1014.6
20260508020520 77 287 5.0 6.0 0.00 0.00 0.00 22 1014.8
20260508020018 77 278 2.0 3.0 0.00 0.00 0.00 22 1014.7
20260508015515 78 269 4.0 5.0 0.00 0.00 0.00 21 1014.6
20260508015012 79 339 1.0 3.0 0.00 0.00 0.00 22 1014.7
20260508014508 79 277 2.0 3.0 0.00 0.00 0.00 22 1014.5
20260508014005 80 278 2.0 3.0 0.00 0.00 0.00 22 1014.6
20260508013501 80 285 1.0 2.0 0.00 0.00 0.00 20 1014.8
20260508012958 80 13 0.0 3.0 0.00 0.00 0.00 21 1014.7
20260508012455 79 8 2.0 4.0 0.00 0.00 0.00 21 1014.6
20260508011952 78 72 2.0 3.0 0.00 0.00 0.00 23 1014.7
20260508011450 76 201 0.0 4.0 0.00 0.00 0.00 21 1014.6
20260508010947 77 177 2.0 4.0 0.00 0.00 0.00 22 1014.8
20260508010445 76 214 0.0 4.0 0.00 0.00 0.00 22 1015.1
20260508005942 75 73 1.0 4.0 0.00 0.00 0.00 23 1014.9
20260508005438 74 139 2.0 3.0 0.00 0.00 0.00 24 1014.9
20260508004934 73 89 0.0 3.0 0.00 0.00 0.00 23 1014.9
20260508004431 71 331 2.0 2.0 0.00 0.00 0.00 26 1015.3
20260508003928 71 345 3.0 4.0 0.00 0.00 0.00 26 1015.1
20260508003425 71 2 3.0 4.0 0.00 0.00 0.00 25 1015.2
20260508002922 71 29 3.0 5.0 0.00 0.00 0.00 26 1015.4
20260508002418 71 269 0.0 2.0 0.00 0.00 0.00 25 1015.3
20260508001915 71 12 1.0 2.0 0.00 0.00 0.00 25 1015.4
20260508001411 72 278 2.0 3.0 0.00 0.00 0.00 25 1015.4
20260508000908 72 289 5.0 7.0 0.00 0.00 0.00 25 1015.3
20260508000405 72 313 7.0 8.0 0.00 0.00 0.00 25 1015.4
20260507235900 73 279 5.0 7.0 0.00 0.00 0.00 24 1015.5
20260507235358 73 342 4.0 9.0 0.00 0.00 0.00 25 1015.5
20260507234855 75 298 4.0 9.0 0.00 0.00 0.00 23 1015.6
20260507234351 77 18 5.0 10.0 0.00 0.00 0.00 23 1015.3
20260507233848 77 354 10.0 13.0 0.00 0.00 0.00 23 1015.5
20260507233345 78 34 3.0 12.0 0.00 0.00 0.00 22 1015.6
20260507232843 78 350 7.0 12.0 0.00 0.00 0.00 22 1015.6
20260507232339 78 314 6.0 9.0 0.00 0.00 0.00 22 1015.7
20260507231837 78 326 6.0 13.0 0.00 0.00 0.00 22 1015.6
20260507231333 77 15 6.0 10.0 0.00 0.00 0.00 22 1015.9
20260507230829 77 26 9.0 16.0 0.00 0.00 0.00 23 1016.0
20260507230327 77 21 4.0 4.0 0.00 0.00 0.00 23 1015.9
20260507225827 77 5 4.0 13.0 0.00 0.00 0.00 22 1016.1
20260507225323 77 357 15.0 16.0 0.00 0.00 0.00 23 1016.1
20260507224819 77 318 11.0 14.0 0.00 0.00 0.00 22 1015.9
20260507224316 77 358 5.0 9.0 0.00 0.00 0.00 25 1016.1
20260507223812 75 322 9.0 13.0 0.00 0.00 0.00 26 1016.1
20260507223308 75 332 6.0 15.0 0.00 0.00 0.00 23 1016.1
20260507222806 75 338 9.0 17.0 0.00 0.00 0.00 24 1016.4
20260507222305 75 18 5.0 9.0 0.00 0.00 0.00 24 1016.3
20260507221759 75 356 9.0 13.0 0.00 0.00 0.00 24 1016.2
20260507221255 74 282 7.0 9.0 0.00 0.00 0.00 24 1016.4
20260507220752 74 329 14.0 16.0 0.00 0.00 0.00 24 1016.4
20260507220250 75 20 6.0 10.0 0.00 0.00 0.00 23 1016.3
20260507215746 75 358 9.0 9.0 0.00 0.00 0.00 24 1016.4
20260507215244 74 11 6.0 15.0 0.00 0.00 0.00 24 1016.6
20260507214741 73 326 9.0 19.0 0.00 0.00 0.00 24 1016.9
20260507214238 73 353 6.0 16.0 0.00 0.00 0.00 24 1016.7
20260507213733 74 350 4.0 12.0 0.00 0.00 0.00 24 1016.8
20260507213231 75 332 7.0 11.0 0.00 0.00 0.00 22 1016.9
20260507212726 74 258 1.0 8.0 0.00 0.00 0.00 25 1016.8
20260507212223 75 218 5.0 11.0 0.00 0.00 0.00 25 1016.9
20260507211720 76 321 8.0 18.0 0.00 0.00 0.00 22 1016.9
20260507211216 76 5 11.0 12.0 0.00 0.00 0.00 23 1017.0
20260507210713 76 39 4.0 10.0 0.00 0.00 0.00 22 1017.3
20260507210210 77 344 8.0 11.0 0.00 0.00 0.00 21 1017.1
20260507205706 77 285 6.0 15.0 0.00 0.00 0.00 21 1017.3
20260507205203 78 346 6.0 11.0 0.00 0.00 0.00 22 1017.3
20260507204659 77 325 6.0 7.0 0.00 0.00 0.00 22 1017.3
20260507204157 77 318 4.0 5.0 0.00 0.00 0.00 21 1017.6
20260507203655 77 354 6.0 9.0 0.00 0.00 0.00 22 1017.5
20260507203152 77 346 2.0 2.0 0.00 0.00 0.00 24 1017.5
20260507202647 76 22 3.0 8.0 0.00 0.00 0.00 21 1017.7
20260507202144 75 209 0.0 4.0 0.00 0.00 0.00 24 1017.7
20260507201639 73 164 6.0 6.0 0.00 0.00 0.00 22 1017.9
20260507201137 73 150 3.0 4.0 0.00 0.00 0.00 23 1017.8
20260507200632 73 132 12.0 13.0 0.00 0.00 0.00 23 1017.9
20260507200129 74 94 10.0 13.0 0.00 0.00 0.00 22 1017.8
20260507195626 74 188 9.0 14.0 0.00 0.00 0.00 24 1018.1
20260507195123 73 127 9.0 9.0 0.00 0.00 0.00 21 1018.1
20260507194620 73 121 6.0 18.0 0.00 0.00 0.00 22 1018.2
20260507194115 72 153 11.0 17.0 0.00 0.00 0.00 23 1018.1
20260507193612 71 155 9.0 14.0 0.00 0.00 0.00 25 1018.4
20260507193109 71 108 10.0 15.0 0.00 0.00 0.00 25 1018.5
20260507192605 70 159 12.0 16.0 0.00 0.00 0.00 23 1018.3
20260507192102 69 142 3.0 15.0 0.00 0.00 0.00 25 1018.4
20260507191557 69 105 5.0 14.0 0.00 0.00 0.00 24 1018.3
20260507191055 68 138 4.0 9.0 0.00 0.00 0.00 25 1018.5
20260507190552 68 159 10.0 15.0 0.00 0.00 0.00 24 1018.6
20260507190051 67 118 11.0 15.0 0.00 0.00 0.00 26 1018.6
20260507185549 66 140 8.0 20.0 0.00 0.00 0.00 25 1018.5
20260507185045 67 143 3.0 18.0 0.00 0.00 0.00 24 1018.9
20260507184543 67 132 12.0 20.0 0.00 0.00 0.00 25 1018.8
20260507184041 65 109 12.0 20.0 0.00 0.00 0.00 26 1018.9
20260507183536 64 148 7.0 20.0 0.00 0.00 0.00 25 1018.6
20260507183034 64 141 12.0 22.0 0.00 0.00 0.00 25 1019.1
20260507182530 64 155 8.0 23.0 0.00 0.00 0.00 25 1018.9
20260507182026 64 132 7.0 21.0 0.00 0.00 0.00 25 1018.9
20260507181523 64 149 17.0 23.0 0.00 0.00 0.00 24 1019.1
20260507181020 64 117 11.0 22.0 0.00 0.00 0.00 24 1018.9
20260507180516 64 147 17.0 21.0 0.00 0.00 0.00 25 1019.0
20260507180013 64 110 8.0 26.0 0.00 0.00 0.00 24 1019.3
20260507175509 64 157 11.0 27.0 0.00 0.00 0.00 24 1019.2
20260507175007 63 151 19.0 24.0 0.00 0.00 0.00 24 1019.2
20260507174504 63 133 11.0 23.0 0.00 0.00 0.00 24 1019.1
20260507174002 64 160 12.0 30.0 0.00 0.00 0.00 23 1019.5
20260507173458 62 130 16.0 26.0 0.00 0.00 0.00 23 1019.3
20260507172955 62 144 9.0 21.0 0.00 0.00 0.00 25 1019.3
20260507172451 62 126 17.0 27.0 0.00 0.00 0.00 24 1019.3
20260507171948 62 117 18.0 22.0 0.00 0.00 0.00 25 1019.7
20260507171444 62 134 18.0 25.0 0.00 0.00 0.00 25 1019.6
20260507170941 61 113 17.0 17.0 0.00 0.00 0.00 26 1019.3
20260507170438 61 132 19.0 25.0 0.00 0.00 0.00 25 1019.3
20260507165934 61 141 18.0 24.0 0.00 0.00 0.00 25 1019.5
20260507165430 61 110 14.0 26.0 0.00 0.00 0.00 25 1019.1
20260507164926 61 127 13.0 23.0 0.00 0.00 0.00 24 1019.8
20260507164423 61 136 19.0 25.0 0.00 0.00 0.00 25 1019.6
20260507163920 60 134 16.0 23.0 0.00 0.00 0.00 26 1019.9
20260507163418 60 136 15.0 26.0 0.00 0.00 0.00 24 1019.6
20260507162914 61 134 19.0 26.0 0.00 0.00 0.00 24 1019.6
20260507162409 61 151 15.0 25.0 0.00 0.00 0.00 25 1019.6
20260507161907 60 131 13.0 28.0 0.00 0.00 0.00 24 1019.5
20260507161403 60 134 19.0 31.0 0.00 0.00 0.00 24 1019.6
20260507160900 60 124 13.0 21.0 0.00 0.00 0.00 24 1019.6
20260507160355 60 134 19.0 27.0 0.00 0.00 0.00 24 1019.5
20260507155852 60 144 19.0 24.0 0.00 0.00 0.00 25 1019.5
20260507155348 60 128 14.0 28.0 0.00 0.00 0.00 25 1019.7
20260507154845 60 145 15.0 32.0 0.00 0.00 0.00 25 1019.6
20260507154342 60 148 15.0 34.0 0.00 0.00 0.00 25 1019.6
20260507153839 60 155 17.0 23.0 0.00 0.00 0.00 26 1019.5
20260507153336 60 146 17.0 30.0 0.00 0.00 0.00 25 1019.7
20260507152832 60 144 19.0 34.0 0.00 0.00 0.00 25 1019.5
20260507152328 59 127 16.0 28.0 0.00 0.00 0.00 25 1019.5
20260507151825 59 144 17.0 32.0 0.00 0.00 0.00 28 1019.6
20260507151321 59 142 15.0 26.0 0.00 0.00 0.00 25 1019.7
20260507150818 58 136 22.0 29.0 0.00 0.00 0.00 28 1019.5
20260507150315 58 124 21.0 28.0 0.00 0.00 0.00 30 1019.7
20260507145811 58 127 18.0 32.0 0.00 0.00 0.00 29 1019.8
20260507145307 58 152 12.0 31.0 0.00 0.00 0.00 30 1019.6
20260507144805 58 155 7.0 27.0 0.00 0.00 0.00 29 1019.8
20260507144302 58 164 10.0 32.0 0.00 0.00 0.00 29 1019.6
20260507143758 59 148 11.0 25.0 0.00 0.00 0.00 28 1019.5
20260507143256 59 126 16.0 29.0 0.00 0.00 0.00 26 1019.7
20260507142751 59 133 29.0 35.0 0.00 0.00 0.00 26 1019.8
20260507142248 59 125 23.0 32.0 0.00 0.00 0.00 26 1019.5
20260507141744 58 125 26.0 29.0 0.00 0.00 0.00 26 1019.5
20260507141242 58 147 23.0 32.0 0.00 0.00 0.00 28 1019.7
20260507140737 58 120 21.0 28.0 0.00 0.00 0.00 28 1019.9
20260507140235 57 151 17.0 26.0 0.00 0.00 0.00 28 1019.6
20260507135732 57 150 18.0 34.0 0.00 0.00 0.00 27 1019.8
20260507135230 58 155 13.0 29.0 0.00 0.00 0.00 28 1019.6
20260507134725 57 156 17.0 27.0 0.00 0.00 0.00 27 1019.6
20260507134222 57 137 15.0 33.0 0.00 0.00 0.00 28 1019.6
20260507133718 56 144 17.0 26.0 0.00 0.00 0.00 28 1019.6
20260507133215 55 130 12.0 26.0 0.00 0.00 0.00 28 1019.6
20260507132713 54 142 13.0 30.0 0.00 0.00 0.00 31 1019.5
20260507132209 53 147 11.0 29.0 0.00 0.00 0.00 31 1019.2
20260507131706 53 138 13.0 31.0 0.00 0.00 0.00 32 1019.6
20260507131203 52 144 15.0 27.0 0.00 0.00 0.00 33 1019.6
20260507130700 52 133 19.0 26.0 0.00 0.00 0.00 32 1019.6
20260507130157 52 151 8.0 28.0 0.00 0.00 0.00 32 1019.7
20260507125656 52 152 17.0 31.0 0.00 0.00 0.00 33 1019.7
20260507125154 52 158 15.0 32.0 0.00 0.00 0.00 33 1019.5
20260507124649 52 145 17.0 33.0 0.00 0.00 0.00 33 1019.5
20260507124147 52 153 28.0 31.0 0.00 0.00 0.00 33 1019.5
20260507123645 52 140 19.0 28.0 0.00 0.00 0.00 34 1019.5
20260507123142 51 145 8.0 33.0 0.00 0.00 0.00 35 1019.2
20260507122637 52 141 26.0 30.0 0.00 0.00 0.00 34 1019.0
20260507122133 53 148 15.0 24.0 0.00 0.00 0.00 31 1019.0
20260507121629 54 154 20.0 29.0 0.00 0.00 0.00 30 1019.0
20260507121126 54 126 19.0 29.0 0.00 0.00 0.00 29 1018.9
20260507120622 54 142 12.0 27.0 0.00 0.00 0.00 29 1019.1
20260507120118 54 150 12.0 26.0 0.00 0.00 0.00 29 1019.3
20260507115615 54 146 17.0 26.0 0.00 0.00 0.00 29 1019.3
20260507115111 54 157 11.0 24.0 0.00 0.00 0.00 29 1019.2
20260507114607 54 156 8.0 25.0 0.00 0.00 0.00 29 1019.6
20260507114104 54 145 12.0 22.0 0.00 0.00 0.00 29 1019.5
20260507113601 54 149 17.0 23.0 0.00 0.00 0.00 30 1019.3
20260507113058 54 151 21.0 24.0 0.00 0.00 0.00 30 1019.6
20260507112556 54 155 17.0 22.0 0.00 0.00 0.00 31 1019.5
20260507112053 54 154 15.0 26.0 0.00 0.00 0.00 31 1019.2
20260507111550 54 137 20.0 27.0 0.00 0.00 0.00 30 1019.2
20260507111046 53 144 16.0 26.0 0.00 0.00 0.00 31 1019.2
20260507110543 53 148 20.0 29.0 0.00 0.00 0.00 32 1019.1
20260507110039 53 142 17.0 31.0 0.00 0.00 0.00 32 1019.2